Regional Weather Roundup
Issued by NWS

Home | Current Version | Previous Version | Graphics & Text | Print | Product List | Glossary On
Versions: 1 2 3 4 5 6 7 8 9 10 11 12 13 14 15 16 17 18 19 20 21 22 23 24 25 26 27 28 29 30 31 32 33 34 35 36 37 38 39 40 41 42 43 44 45 46 47 48 49 50
000
ASUS44 KMEG 290010
RWRTN
TENNESSEE HOURLY STATE WEATHER ROUNDUP
NATIONAL WEATHER SERVICE MEMPHIS TN
700 PM CDT SUN AUG 28 2016

TNZ002-004-019-021-049-052-054-088>092-290100-
WEST TENNESSEE

CITY           SKY/WX    TMP DP  RH WIND       PRES   REMARKS
MEMPHIS INTL   PTCLDY    93  66  40 E9        30.02R HX  96
NWS MEMPHIS      N/A     87 N/A N/A MISG        N/A
JACKSON        CLEAR     86  76  71 CALM      30.05R HX  96
DYERSBURG      CLEAR     90  73  58 MISG      30.03S HX  98
UNION CITY     CLEAR     88  73  62 E5        30.05R HX  96
PARIS          CLEAR     84  75  74 E5        30.08S HX  92
LEXINGTON      CLEAR     84  75  74 CALM      30.06S HX  92
$$

TNZ008-025-027-028-033-062-065-066-290100-
NORTH MIDDLE TENNESSEE

CITY           SKY/WX    TMP DP  RH WIND       PRES   REMARKS
NASHVILLE      PTCLDY    82  71  69 SE5       30.09F
CLARKSVILLE    CLEAR     86  74  67 NE3       30.08R HX  94
SMYRNA         CLEAR     77  73  88 CALM      30.10S
COOKEVILLE     CLEAR     77  73  88 CALM      30.12R
CROSSVILLE     TSTM      71  68  90 NW9       30.20R VSB 1/4
$$

TNZ061-075-076-078-094-096-097-290100-
SOUTH MIDDLE TENNESSEE

CITY           SKY/WX    TMP DP  RH WIND       PRES   REMARKS
FAYETTEVILLE   CLEAR     81  70  69 E7        30.09F
TULLAHOMA        N/A     81  66  61 CALM      30.12S
WINCHESTER     PTCLDY    77  66  69 CALM      30.11S
MCMINNVILLE    CLEAR     75  75 100 CALM      30.12S
COLUMBIA       CLEAR     82  82 100 CALM      30.08S HX  97
SHELBYVILLE    CLEAR     84  75  74 CALM      30.10S HX  92
$$

TNZ017-018-042-046-047-290100-
NORTHEAST TENNESSEE

CITY           SKY/WX    TMP DP  RH WIND       PRES   REMARKS
TRI CITIES     MOCLDY    82  71  69 SE5       30.15R
ELIZABETHTON   PTCLDY    77  70  78 CALM      30.16R
$$

TNZ012-013-036-069-073-074-290100-
CENTRAL EAST TENNESSEE

CITY           SKY/WX    TMP DP  RH WIND       PRES   REMARKS
KNOXVILLE      CLOUDY    79  67  66 N8        30.10S
OAK RIDGE      CLOUDY    74  69  85 CALM      30.13S
GATLINBURG     CLEAR     79  68  69 CALM      30.11S
MORRISTOWN     CLEAR     75  70  83 N3        30.12F
$$

TNZ083-085-099-290100-
SOUTHEAST TENNESSEE

CITY           SKY/WX    TMP DP  RH WIND       PRES   REMARKS
CHATTANOOGA    MOCLDY    78  72  81 CALM      30.09S
$$

SKY/WX REPORTED AS FAIR MEANS FEW OR NO CLOUDS BELOW
12 THOUSAND FEET.




USA.gov is the U.S. government's official web portal to all federal, state and local government web resources and services.